Location: Bridgewater Hill Observatory
(43.5992°N, 72.6989°W)
Time: 09:23:11
(UTC-04:00)

Daily predictions for brighter satellites

Satellite Brightness Start Highest point End
(mag) Time Altitude Azimuth Time Altitude Azimuth Time Altitude Azimuth
Cosmos 1934 Rocket 4.0 19:53:08 10° S 19:59:11 65° E 20:05:22 10° NNE
Cosmos 2278 3.8 19:54:17 10° S 19:59:48 56° ESE 20:05:22 10° NNE
Meteor 2-4 Rocket 4.1 19:54:35 10° NNW 20:00:27 77° W 20:06:21 10° S
EO 1 Delta rocket 4.4 19:57:17 10° NNE 20:01:46 42° E 20:06:51 10° SSE
Cosmos 1633 3.7 19:58:59 10° SSW 20:02:33 50° W 20:06:07 10° N
Resurs 01 Rocket 2.5 20:02:39 10° S 20:06:59 55° W 20:11:23 10° NNW
NOSS 7 (E) 4.3 20:06:11 10° SSW 20:09:35 78° SE 20:12:58 10° NE
Cosmos 1544 Rocket 3.6 20:05:23 10° S 20:09:46 89° WNW 20:14:13 10° N
ALOS 2.3 20:06:30 10° SSE 20:11:09 74° ENE 20:15:50 10° N
Cosmos 2208 Rocket 4.0 20:07:21 10° SSW 20:12:40 80° ESE 20:18:05 10° NNE
Cosmos 2369 3.7 20:08:17 10° S 20:13:52 65° ESE 20:19:31 10° NNE
Cosmos 1980 Rocket 3.6 20:12:28 10° SE 20:15:58 17° E 20:19:29 10° ENE
Cosmos 1975 3.4 20:13:05 10° SSE 20:16:53 37° E 20:20:42 10° NNE
H-2A R/B 2.8 20:13:39 10° SSE 20:17:31 70° ENE 20:21:27 10° N
Helios 1B rocket 3.8 20:14:28 10° N 20:18:26 44° WNW 20:22:20 10° SW
NOSS 7 (H) 4.4 20:15:43 10° SSW 20:18:58 54° ESE 20:22:20 10° NE
CZ-4B DEB 3.5 20:18:41 10° S 20:21:54 57° W 20:25:10 10° NNW
Lacrosse 5 rocket 1.1 20:18:47 10° NW 20:22:31 76° SW 20:25:57 11° SE
Envisat 4.0 20:20:13 10° SE 20:24:30 29° ENE 20:28:51 10° N
Okean 2 4.2 20:20:44 10° NNW 20:24:49 56° W 20:28:53 10° S
Cosmos 1937 Rocket 4.4 20:20:12 10° N 20:24:58 33° ENE 20:29:04 13° ESE
USA 186 1.5 20:22:17 10° SSE 20:25:23 75° ENE 20:28:16 10° N
Iridium 4 Rocket 3.6 20:21:09 10° N 20:26:04 46° E 20:30:32 10° SSE
Cosmos 1570 Rocket 4.4 20:21:55 10° SSW 20:27:12 72° WNW 20:32:29 10° NNE
OTV 4 2.7 20:30:22 10° WSW 20:32:17 16° SSW 20:34:01 11° SSE
Meteor 1-12 Rocket 4.2 20:31:01 10° S 20:36:44 73° E 20:42:35 10° NNE
FENGYUN 3A 4.0 20:31:47 10° S 20:37:07 69° WSW 20:42:28 10° NNW
CZ-2D R/B 3.8 20:34:10 10° S 20:37:59 60° W 20:41:51 10° NNW
Cosmos 2263 Rocket 4.3 20:39:05 10° NNE 20:40:24 11° NE 20:41:43 10° NE
Cosmos 1656 3.7 20:35:15 10° S 20:40:45 60° ESE 20:46:14 10° NNE
Cosmos 2173 Rocket 4.5 20:37:25 10° SSE 20:43:16 40° E 20:49:06 10° NNE
Cosmos 2227 Rocket 2.8 20:37:45 10° NNW 20:43:17 57° WSW 20:48:47 10° S
Cosmos 2150 Rocket 4.0 20:39:28 10° NNW 20:44:35 62° ENE 20:48:42 16° SE
Tiangong 1 1.0 20:42:47 10° W 20:45:53 73° S 20:47:24 27° ESE
Cosmos 1605 Rocket 4.2 20:41:43 10° SSW 20:48:03 78° W 20:54:20 10° N
Cosmos 1825 Rocket 4.3 20:46:22 10° N 20:50:27 35° ENE 20:52:30 23° SE
Cosmos 1500 3.1 20:47:28 10° S 20:51:10 59° E 20:54:55 10° NNE
ERS-1 Rocket 3.0 20:48:09 13° SSE 20:52:36 67° ENE 20:57:35 10° N
Cosmos 1939 Rocket 3.2 20:49:57 19° SE 20:52:40 52° ENE 20:56:44 10° N
Lacrosse 5 1.9 20:48:42 10° NW 20:53:46 69° NE 20:56:52 23° ESE
Cosmos 2100 Rocket 4.1 20:50:41 10° SSE 20:56:47 55° E 21:02:50 10° NNE
Cosmos 2297 Rocket 2.7 20:53:01 10° NNW 20:58:36 59° WSW 21:04:08 10° S
DELTA 2 R/B (1) 4.2 20:53:22 10° W 20:58:36 43° SSW 21:01:40 23° SE
Cosmos 1953 Rocket 4.4 20:56:39 10° N 21:00:42 33° ENE 21:02:07 27° ESE
Cosmos 1340 3.4 20:57:30 10° N 21:01:00 35° ENE 21:01:55 30° ESE
SPOT 5 3.5 21:00:31 24° ESE 21:02:54 40° ENE 21:07:22 10° N
Cosmos 2061 Rocket 4.1 20:57:36 10° SSE 21:03:45 57° E 21:09:52 10° NNE
Cosmos 1898 Rocket 3.5 20:58:28 10° NNW 21:03:49 86° WSW 21:07:48 18° SSE
YAOGAN 11 4.2 21:00:22 14° SSE 21:04:18 84° WSW 21:08:47 10° NNW
YAOGAN 6 3.8 21:04:21 25° E 21:04:44 26° ENE 21:07:51 10° NNE
Cosmos 1763 Rocket 4.0 21:01:53 19° SSE 21:04:46 34° ESE 21:09:20 10° NE
H-2A R/B 2.3 21:03:38 30° ESE 21:05:13 45° ENE 21:09:10 10° N
Cosmos 1626 Rocket 4.5 21:03:34 10° NNW 21:07:49 49° W 21:12:01 10° SSW
Cosmos 1515 4.4 21:09:39 10° NNW 21:13:25 52° W 21:16:39 13° S
MetOp-A 4.4 21:13:18 29° SE 21:15:42 50° ENE 21:20:52 10° N
RESURS DK-1 2.3 21:14:48 10° NNW 21:18:58 88° WSW 21:20:28 39° SSE
Cosmos 1758 Rocket 3.9 21:15:21 10° N 21:19:32 44° ENE 21:20:18 39° ESE
Cosmos 468 Rocket 4.0 21:15:18 10° SSW 21:20:25 83° WNW 21:25:36 10° NNE
USA 215 4.1 21:15:54 17° E 21:20:30 40° NNE 21:26:30 10° NW
deb Chang Zheng 4 3.6 21:16:53 10° NNE 21:21:18 58° ESE 21:23:15 31° SSE
Cosmos 2084 4.1 21:18:10 10° NW 21:22:05 47° WSW 21:23:56 28° S
CZ-4 DEB 4.1 21:22:57 20° SSW 21:24:37 36° W 21:27:34 10° NNW
Cosmos 841 Rocket 3.6 21:24:57 30° SSE 21:27:10 49° ESE 21:32:12 10° NNE
Cosmos 1743 2.7 21:26:38 29° S 21:28:34 88° WNW 21:32:30 10° N
Cosmos 1459 Rocket 3.9 21:22:49 10° S 21:28:52 90° W 21:35:02 10° N
Cosmos 1725 Rocket 4.3 21:28:16 33° SE 21:30:23 45° E 21:36:17 10° NNE
Cosmos 1814 Rocket 4.1 21:25:33 10° SSW 21:30:53 80° WNW 21:36:14 10° NNE
Terra 3.6 21:32:33 18° ENE 21:32:35 18° ENE 21:35:43 10° NNE
SL-19 R/B 4.5 21:29:43 10° NNE 21:34:54 42° E 21:35:23 41° ESE
Cosmos 1697 Rocket 3.0 21:30:39 10° SW 21:36:16 68° WNW 21:41:55 10° NNE
OAO 2 Rocket 4.3 21:34:04 10° WSW 21:38:28 31° S 21:38:28 31° S
SL-16 R/B 3.2 21:46:17 28° ENE 21:46:17 28° ENE 21:49:42 10° NE
Cosmos 2058 Rocket 3.0 21:45:01 63° ESE 21:45:10 63° E 21:49:39 10° NNE
NOAA 11 4.3 21:46:05 48° ESE 21:47:16 58° ENE 21:52:38 10° N
ASTEX 1 3.3 21:46:05 10° N 21:51:08 89° ESE 21:52:42 45° S
Cosmos 1606 Rocket 3.7 21:50:20 37° SSW 21:51:59 70° W 21:56:26 10° N
ARGOS 3.1 21:53:32 55° ESE 21:54:27 66° ENE 21:59:49 10° N
Cosmos 1842 3.3 21:51:37 10° N 21:55:11 72° N 21:55:11 72° N
Cosmos 2233 Rocket 4.3 21:55:16 43° E 21:55:34 44° E 22:01:25 10° NNE
Cosmos 1980 Rocket 2.4 21:53:38 10° SSW 21:59:17 72° WNW 22:05:01 10° NNE
Envisat 4.3 22:00:26 20° SSW 22:03:23 36° W 22:08:04 10° NNW
SL-08 R/B 4.5 22:00:46 28° SSW 22:04:19 81° W 22:10:31 10° N
MetOp-B 4.5 22:07:39 43° SSW 22:09:13 60° WSW 22:14:32 10° NNW
Cosmos 1726 Rocket 4.5 22:14:23 37° WSW 22:15:30 45° WNW 22:19:46 10° N
Cosmos 1666 3.7 22:16:27 44° NW 22:16:27 44° NW 22:19:28 10° N
H-2A R/B 2.3 22:17:51 51° NE 22:17:51 51° NE 22:22:08 10° N
Meteor 2-5 Rocket 4.1 22:12:50 10° N 22:18:28 49° ENE 22:18:28 49° ENE
Meteor 1-15 Rocket 4.3 22:19:19 52° SSW 22:20:52 81° W 22:26:47 10° N
CZ-4B R/B 3.5 22:17:01 10° NNE 22:21:05 64° NNE 22:21:05 64° NNE
Cosmos 1375 Rocket 4.4 22:25:11 69° SE 22:25:35 71° ESE 22:32:10 10° NE
Cosmos 2263 Rocket 2.5 22:20:13 10° NNW 22:25:29 53° NE 22:25:29 53° NE
Cosmos 2322 Rocket 2.2 22:32:37 72° NE 22:32:37 72° NE 22:37:40 10° NNE
SL-08 RB Rocket 4.2 22:33:41 59° WNW 22:33:41 59° WNW 22:37:46 10° NNW
Lacrosse 5 3.6 22:32:27 10° WNW 22:36:04 22° WSW 22:36:04 22° WSW
SPOT 1/Viking Rocket 4.1 22:36:07 48° WSW 22:36:31 49° W 22:41:35 10° NNW
H-2A R/B 4.4 22:40:46 15° WSW 22:41:29 16° W 22:44:01 10° NW
Cosmos 1125 Rocket 4.3 22:47:04 10° NNW 22:51:36 43° W 22:51:36 43° W
USA 215 3.1 23:03:14 84° WSW 23:03:14 84° WSW 23:09:44 10° NW
Terra 3.1 23:11:26 38° NW 23:11:26 38° NW 23:14:35 10° NNW
Cosmos 2278 Rocket 4.2 23:09:07 10° N 23:12:54 18° NE 23:13:01 18° NE
SL-16 R/B 3.3 23:28:05 38° WNW 23:28:41 39° WNW 23:33:59 10° NNE
Cosmos 1844 Rocket 3.9 23:32:43 10° NNW 23:36:28 36° NNE 23:36:28 36° NNE
Cosmos 2360 Rocket 3.4 23:45:50 38° N 23:45:50 38° N 23:49:19 10° NNE
